Hourly Data Report for August 01, 2021

LONDON CS
ONTARIO
Current Station Operator: ECCC - MSC

43°02'00.000" N
81°09'00.000" W
278.00 m
6144478
71622
WSN

Download Data

Hourly Data (August 2021)
Hourly Data Report for August 1, 2021
TIME
LST
Temp Definition
°C
Dew Point Definition
°C
Rel Hum Definition
%
Precip. Amount Definition
mm

Wind Dir Definition
10's deg

Wind Spd Definition
km/h
Visibility Definition
km
Stn Press Definition
kPa
Hmdx Definition


Wind Chill Definition


Weather Definition


00:00 17.6 15.7 89 0.0       97.88     LegendNANA
01:00 16.7 15.4 92 0.0       97.83     LegendNANA
02:00 16.8 15.3 91 0.0       97.80     LegendNANA
03:00 16.8 15.4 91 0.0       97.81     LegendNANA
04:00 16.8 15.4 91 0.0       97.79     LegendNANA
05:00 16.9 15.3 91 0.0       97.77     LegendNANA
06:00 16.5 15.2 93 0.0       97.83     LegendNANA
07:00 16.5 14.7 89 0.0       97.83     LegendNANA
08:00 16.6 14.5 87 0.0       97.84     LegendNANA
09:00 16.2 14.8 92 0.0       98.01     LegendNANA
10:00 16.3 14.7 90 2.3       97.91     LegendNANA
11:00 18.8 14.9 78 0.0       97.95     LegendNANA
12:00 19.4 14.3 72 0.0       97.94     LegendNANA
13:00 21.3 15.1 68 0.0       97.93 25   LegendNANA
14:00 21.3 12.9 59 0.0       97.93     LegendNANA
15:00 22.8 14.0 58 0.0       97.95 26   LegendNANA
16:00 19.5 11.8 61 0.0       98.01     LegendNANA
17:00 19.4 12.4 64 0.0       98.06     LegendNANA
18:00 18.8 13.8 72 0.0       98.09     LegendNANA
19:00 18.6 12.8 69 0.0       98.17     LegendNANA
20:00 17.1 13.3 78 0.0       98.26     LegendNANA
21:00 16.0 12.2 78 0.0       98.35     LegendNANA
22:00 15.4 12.9 85 0.0       98.40     LegendNANA
23:00 14.7 12.7 88 0.0       98.42     LegendNANA

Notes on Data Quality.

Legend

  • E = Estimated
  • M = Missing
  • NA = Not Available*
  • [empty] = Indicates an unobserved value
Date modified: